Theta_e
315 315 315 316 316 317 321 322 324 323 321 324 325 325 322 321 320 319 323 320 317 317 314 316 316 317 319 319 320 320 320 323 325 323 326 326 321 321 321 319 321 319 316 314 313 313 314 317 319 321 326 330 330 329 329 329 329 328 327 327 327 325 324 324 325 326 327 328 330 330 331 331 330 329 328 327 326 325 324 324 324 323 323 322 324 330 330 329 330 330 331 332 332 333 332 331 329
314 314 315 315 318 319 322 323 326 327 324 323 323 325 323 319 319 323 328 323 320 317 315 317 317 317 318 319 319 319 319 320 320 321 323 322 322 322 321 320 321 321 318 315 314 314 314 315 317 319 321 324 326 326 327 327 327 327 328 328 327 326 324 324 325 327 329 330 332 332 333 332 331 330 329 328 327 326 326 325 325 325 325 324 324 327 328 328 329 330 331 332 332 333 333 332 329
315 314 314 315 319 320 323 323 325 327 320 319 321 323 321 320 325 327 325 320 317 316 318 319 317 317 317 318 319 320 321 320 320 321 321 322 323 322 322 321 322 322 320 316 315 314 314 314 315 317 318 320 322 323 325 326 327 328 330 329 328 327 325 325 326 328 330 331 333 333 333 332 331 330 329 329 328 327 326 325 325 325 325 325 324 323 324 326 329 331 330 331 332 333 333 329 325
315 315 314 315 320 322 326 326 329 327 319 320 320 322 324 326 331 325 318 317 316 316 318 319 318 318 318 319 319 319 320 320 321 321 322 322 323 323 322 322 322 322 320 318 315 314 314 314 313 314 316 319 319 321 324 326 327 328 329 328 327 326 326 327 328 330 331 332 332 332 332 331 330 329 329 328 327 326 325 325 325 325 325 325 324 322 320 321 326 329 328 328 330 331 328 324 321
316 316 316 317 321 323 326 324 327 324 318 323 320 323 330 330 330 321 315 317 316 316 317 318 319 318 318 319 318 319 320 321 321 321 321 321 322 323 322 322 322 321 320 318 316 315 314 314 314 313 315 316 317 319 322 323 325 325 325 326 326 327 327 328 330 331 331 331 331 331 330 329 329 329 328 326 325 324 325 324 324 325 324 323 321 318 316 316 318 320 321 322 322 321 318 317 316
316 318 319 319 321 321 323 321 324 324 320 322 322 326 329 323 320 315 314 317 316 316 317 317 317 317 316 318 318 319 320 320 320 320 320 321 322 322 323 322 321 320 319 319 316 315 314 314 314 314 314 315 316 317 319 320 322 324 324 326 327 328 330 329 330 332 332 331 331 330 329 329 328 327 325 322 321 321 320 319 318 318 318 316 314 313 312 312 313 314 314 314 314 313 312 312 312
317 320 321 320 320 319 326 327 327 328 322 317 321 326 321 315 314 314 315 317 317 316 317 317 316 316 317 318 318 319 318 318 319 319 319 320 322 322 323 322 322 321 319 319 317 316 315 314 314 315 315 314 316 316 317 318 320 325 326 327 329 330 331 331 331 331 331 331 331 330 329 328 325 322 320 317 316 315 314 313 312 313 312 312 311 311 310 310 310 310 311 310 311 310 310 310 309
319 320 319 323 324 320 327 328 326 327 321 314 316 321 318 315 314 315 316 316 317 316 316 317 315 316 318 317 317 318 317 317 317 317 318 319 321 322 322 322 322 321 320 319 318 317 315 314 314 315 315 315 315 314 315 316 319 323 324 327 330 330 329 330 329 329 329 328 329 328 326 323 319 316 314 313 312 312 311 311 310 310 309 309 308 308 308 308 308 307 307 307 307 306 306 305 305
319 319 318 322 324 322 327 325 322 321 322 320 316 317 315 315 314 315 317 316 316 315 315 316 315 316 316 315 316 318 317 317 316 316 317 318 320 321 321 321 322 321 321 320 318 317 316 315 315 315 315 315 315 313 313 315 317 319 322 325 327 325 323 323 325 326 325 324 324 323 321 317 313 312 312 311 311 310 309 308 308 307 306 306 305 305 305 305 305 304 305 304 304 304 304 304 304
319 319 316 320 323 321 323 321 320 321 323 320 315 315 315 315 314 314 316 316 315 315 315 315 315 316 315 315 316 318 317 317 316 316 316 317 319 319 320 319 320 322 321 320 319 317 316 315 315 315 315 314 313 312 312 313 315 317 320 323 322 320 317 316 318 319 317 319 320 319 318 314 312 311 310 310 309 307 306 306 305 305 305 304 304 304 304 304 304 304 304 304 304 304 304 304 304
319 318 316 321 325 321 321 321 321 323 320 316 314 316 315 314 314 314 314 315 316 315 315 315 315 315 314 315 317 318 317 317 317 316 316 317 318 318 318 318 319 320 321 320 319 318 317 316 315 315 315 313 312 312 312 312 313 313 316 318 317 316 314 313 314 314 312 314 315 315 314 312 310 310 309 308 306 305 305 305 304 305 304 304 304 304 304 304 304 304 304 304 304 304 304 304 304
318 320 326 330 326 322 322 324 323 323 322 320 319 316 314 314 315 317 316 316 316 315 315 316 317 316 315 315 317 317 317 317 317 317 316 316 317 318 317 317 317 318 319 320 319 318 317 316 315 315 315 313 312 312 312 312 312 312 313 314 314 313 312 312 312 312 311 311 312 311 311 310 309 308 307 305 305 304 304 305 305 304 304 304 304 304 304 304 304 304 304 304 304 304 304 304 305
318 321 329 326 321 323 323 325 327 325 326 325 318 315 315 314 316 318 316 316 314 316 317 317 316 317 316 317 317 317 317 317 318 317 317 316 317 318 317 317 317 316 317 318 319 318 317 316 315 315 315 314 313 312 312 313 313 312 313 312 312 312 311 312 311 310 310 310 310 309 309 308 308 306 305 305 304 304 305 305 305 305 304 305 305 305 305 305 305 305 305 305 304 305 305 306 306
318 319 325 321 318 324 323 325 327 323 324 325 317 314 315 315 316 316 316 317 316 316 318 317 316 316 316 316 317 318 317 317 317 318 317 317 317 317 317 317 317 316 316 317 318 318 317 317 316 315 315 314 314 312 312 313 313 313 313 312 312 311 310 310 310 310 309 309 309 308 308 307 305 305 304 305 305 305 305 305 305 305 305 305 305 305 305 305 305 305 305 305 305 305 306 306 306
318 318 324 326 321 322 322 322 322 320 321 321 317 314 315 315 316 316 316 318 318 317 317 317 316 316 317 317 318 317 317 317 317 317 317 317 317 317 317 317 317 316 315 316 317 317 317 317 317 316 315 314 314 313 313 313 313 313 312 312 311 310 310 310 309 309 309 308 308 308 306 305 304 304 305 305 305 305 305 305 305 305 306 305 305 306 305 305 305 305 305 306 306 306 305 305 305
318 318 323 326 323 321 322 320 318 320 321 317 315 314 315 315 316 315 316 316 316 316 316 316 316 317 317 317 318 317 317 317 317 317 317 317 317 317 317 317 317 316 315 315 315 316 317 317 317 316 316 315 314 313 313 313 313 313 312 311 311 310 310 309 309 309 308 308 308 306 305 304 304 305 305 305 305 305 305 305 305 305 306 305 306 306 305 305 305 305 305 305 305 305 305 305 305
317 319 324 324 323 322 322 322 318 321 325 318 314 314 314 316 315 315 315 315 315 316 316 316 316 316 317 317 317 317 317 316 316 317 316 317 317 316 317 317 317 317 316 315 315 315 316 316 316 316 316 315 314 314 313 313 313 313 312 311 311 310 310 309 309 308 308 308 307 305 304 304 305 305 305 305 305 305 305 305 305 305 305 305 305 305 305 305 305 305 305 305 305 305 305 305 305
319 324 323 321 324 323 322 323 317 316 322 318 314 313 313 315 315 314 315 314 315 316 316 316 316 316 317 317 316 316 316 316 316 316 316 316 316 316 317 317 317 317 316 316 315 315 315 315 316 316 316 316 315 314 314 313 313 313 312 312 311 310 310 309 309 308 308 307 306 305 304 304 305 305 305 305 305 305 305 305 305 305 305 305 305 305 305 305 305 305 305 305 305 304 304 304 304
321 323 320 323 328 321 316 317 313 313 317 315 314 314 312 314 314 313 314 314 314 315 315 315 315 316 316 316 316 316 316 316 316 316 316 316 316 316 316 316 317 317 317 316 316 315 315 315 315 315 315 316 315 315 314 314 313 313 312 312 311 310 309 309 309 308 308 307 306 304 304 304 305 305 305 305 305 305 305 305 305 305 305 305 304 304 305 305 305 305 304 304 304 304 304 304 304
318 318 322 328 323 314 312 313 313 314 315 313 313 314 312 314 314 312 313 314 314 314 315 314 314 316 316 316 316 315 316 315 316 316 316 316 316 315 316 316 316 316 316 316 317 316 315 315 315 315 315 315 315 315 315 314 313 313 312 312 311 311 310 309 309 308 308 308 306 304 304 305 305 304 305 305 305 305 305 305 305 305 305 305 305 305 305 305 305 305 304 304 304 304 304 304 304
317 317 326 326 315 314 316 315 316 315 314 312 313 313 312 314 314 312 312 313 315 315 315 315 315 316 316 316 315 315 315 315 315 315 315 315 315 315 315 316 315 316 316 316 316 316 316 315 315 315 315 314 315 315 315 315 314 313 312 312 311 311 310 310 309 309 308 308 305 304 304 304 304 304 305 305 305 305 305 305 305 305 305 305 304 304 304 305 304 304 305 304 304 304 304 304 304
317 317 321 318 312 316 317 315 317 315 314 313 311 313 314 314 313 312 312 314 316 315 316 316 315 316 316 315 315 315 315 315 315 315 315 315 315 315 315 315 315 316 316 316 316 316 316 316 316 315 315 314 315 315 315 315 315 314 313 312 312 311 311 310 310 309 309 308 306 304 304 304 304 304 305 305 305 305 305 305 305 305 304 304 304 304 304 304 304 304 304 304 304 304 304 304 303
318 318 316 316 316 315 316 316 316 315 314 313 312 314 314 312 313 313 312 314 316 315 316 316 315 315 315 315 315 315 315 314 315 315 315 315 315 315 315 315 315 315 315 315 315 316 316 316 316 316 315 315 314 315 315 315 315 315 314 312 312 311 311 311 310 310 309 308 306 304 304 304 304 304 305 305 305 305 305 305 305 304 304 304 304 304 304 304 304 304 304 304 304 304 304 304 303
317 319 314 315 316 315 316 316 315 315 314 314 314 314 313 313 314 313 312 314 315 315 315 315 315 315 314 315 315 315 315 314 315 315 315 315 316 315 315 315 314 315 315 315 315 316 316 316 316 316 316 315 314 314 315 315 315 315 314 313 312 311 311 311 311 310 309 308 306 304 304 304 304 304 304 305 305 305 305 304 304 305 304 304 304 304 304 304 304 304 304 304 304 304 304 303 303
316 319 315 314 315 315 316 315 314 315 314 314 314 312 313 314 313 311 312 315 315 315 315 315 315 315 315 314 314 315 314 314 315 315 315 315 316 315 315 315 314 314 315 315 315 315 315 315 316 316 316 316 315 314 314 314 314 315 314 313 313 312 311 311 311 310 309 308 307 305 304 304 304 304 304 304 305 304 305 304 304 304 304 304 304 304 303 303 303 303 304 304 304 304 303 303 303
315 316 314 313 314 314 314 314 313 313 313 313 312 311 313 313 311 311 313 315 315 315 315 315 314 314 315 314 314 315 314 314 314 315 316 315 315 316 316 316 315 315 315 315 315 315 315 315 316 316 316 316 316 315 314 314 314 314 314 314 313 313 312 311 311 310 309 309 308 306 305 304 303 304 304 304 304 304 304 304 304 304 304 304 303 303 303 303 303 303 303 303 303 303 303 303 303
313 312 312 312 312 312 312 311 312 312 312 311 311 312 312 311 310 312 314 314 314 314 314 314 314 314 314 314 314 314 314 315 314 314 315 315 316 316 316 316 316 316 316 315 315 315 315 315 315 315 316 316 316 315 315 315 314 314 314 314 314 313 313 311 311 310 310 309 308 307 305 304 303 303 303 303 303 303 303 304 304 304 304 304 303 303 303 303 303 302 303 303 303 303 303 302 302
311 310 312 311 310 311 310 310 311 311 311 310 310 311 310 310 310 312 314 314 313 313 314 314 314 314 314 314 315 314 314 315 314 314 315 316 315 316 316 316 316 316 316 316 316 315 315 315 314 315 315 315 315 316 315 315 315 314 314 314 314 314 313 312 311 310 310 309 308 307 307 305 303 303 303 303 303 303 303 303 303 304 304 303 303 302 302 302 302 302 303 303 303 303 302 302 302
311 311 313 313 311 312 311 311 310 309 311 310 309 310 312 312 312 314 314 313 313 312 313 314 314 314 314 314 315 315 315 315 315 314 315 315 315 315 315 315 316 316 316 316 316 315 315 315 315 314 314 315 315 315 315 315 315 315 314 314 314 314 314 313 312 311 310 309 309 308 307 306 304 303 303 302 302 302 302 302 303 303 303 303 302 302 302 302 302 302 303 302 302 302 302 302 302
312 311 311 313 312 313 311 309 309 308 310 310 309 312 316 316 313 313 314 312 311 311 312 313 314 314 314 315 314 314 314 315 315 314 315 315 315 315 315 314 315 315 316 316 316 316 316 315 315 314 314 314 314 315 315 315 315 315 315 314 314 314 314 314 313 312 311 310 309 308 308 307 305 303 302 302 302 302 302 302 302 302 302 302 302 302 302 302 302 302 302 302 302 302 302 302 301
314 310 311 313 312 316 314 307 307 309 310 309 310 312 314 314 312 313 314 311 310 310 311 313 314 314 314 314 314 314 314 314 314 315 315 315 315 314 314 315 314 314 315 316 316 316 316 315 315 315 314 314 314 314 314 315 315 315 315 315 314 314 314 314 314 312 311 310 309 308 308 307 307 305 303 302 302 302 302 301 301 302 302 302 302 301 301 301 301 301 301 301 301 301 301 301 301
320 311 315 316 312 317 316 308 306 310 311 307 310 313 312 311 312 313 313 312 310 309 311 312 312 312 313 313 313 313 314 315 315 315 316 316 316 315 315 315 314 314 314 315 315 315 315 315 315 315 315 314 314 314 314 314 314 314 315 314 314 314 314 314 314 313 312 311 310 309 308 307 307 306 303 302 301 301 301 301 301 301 301 301 301 301 301 301 301 301 301 301 301 301 301 301 301
322 312 315 317 313 314 313 311 307 307 309 308 309 312 312 311 311 313 313 312 311 309 309 310 311 311 312 312 312 313 313 314 315 316 317 316 316 315 315 315 314 314 314 314 314 314 315 315 315 315 315 315 314 314 314 314 314 314 314 315 314 314 314 314 314 314 313 311 310 309 308 308 307 307 305 303 301 301 301 301 301 301 301 301 301 301 301 301 301 301 301 301 301 301 300 301 300
318 313 314 315 314 312 311 314 310 305 308 310 309 309 310 311 310 311 312 311 310 309 310 310 310 311 311 312 312 312 312 312 315 318 318 316 315 315 314 314 314 313 314 314 314 314 314 314 315 315 315 315 314 314 314 313 314 314 314 314 314 314 314 314 314 314 313 312 311 310 309 308 307 307 306 304 302 301 301 300 301 300 300 300 300 300 300 300 300 300 300 300 300 300 300 300 300
316 316 315 313 313 312 311 313 311 310 311 310 310 309 308 309 309 308 310 310 309 308 310 310 310 310 311 312 311 312 312 312 316 318 316 314 314 314 314 313 313 313 313 313 314 313 314 314 314 314 314 314 314 313 313 313 313 313 314 313 314 314 314 314 313 313 313 312 311 310 309 308 308 307 306 306 303 301 300 300 300 300 300 300 300 300 300 300 300 300 300 300 300 300 300 300 300
314 313 313 313 312 311 311 311 309 310 310 309 309 309 309 309 309 309 309 310 309 308 309 309 310 311 311 311 311 312 312 315 317 316 313 313 313 312 313 313 312 313 313 313 313 313 313 314 314 314 314 314 314 313 312 312 313 313 313 313 313 314 314 314 313 313 313 313 312 311 309 308 307 307 306 306 305 302 301 300 300 300 299 299 299 300 300 300 300 300 300 300 300 300 300 300 300
311 311 312 312 311 310 310 311 309 307 308 310 310 310 310 310 310 309 309 310 309 308 309 309 310 310 311 311 312 313 313 316 315 312 312 312 312 312 312 313 312 313 313 312 313 313 313 313 313 313 313 313 313 313 313 313 313 313 313 313 313 313 313 313 313 313 313 313 313 311 310 308 307 307 306 306 306 304 301 300 299 299 299 299 299 300 300 300 300 300 300 299 300 300 300 300 300
311 312 312 311 310 311 310 310 310 307 308 310 310 310 309 309 310 309 309 310 309 310 309 309 310 311 311 311 312 314 314 315 313 311 312 312 312 313 313 313 312 312 312 312 312 312 312 312 312 312 312 312 312 313 313 313 313 313 313 313 313 313 313 313 313 313 313 313 313 312 311 309 308 307 306 306 306 305 303 300 299 299 299 299 299 299 299 299 299 299 299 299 299 299 300 300 300
312 311 312 312 311 311 310 310 312 309 308 311 311 310 309 309 310 309 309 310 310 310 310 310 310 310 311 313 313 313 313 313 311 310 312 312 313 313 312 312 312 312 312 311 312 312 312 312 312 312 312 312 312 312 313 313 313 312 312 312 312 312 312 313 313 313 313 313 312 312 311 310 308 307 306 306 305 305 304 302 300 299 299 299 299 299 299 299 299 299 299 299 299 299 299 299 299
313 312 311 312 311 312 312 312 315 312 309 310 310 308 310 310 310 310 309 309 309 310 310 310 311 311 312 313 313 312 311 311 310 311 312 313 313 312 312 312 312 312 311 311 311 311 312 312 312 312 313 313 312 313 312 312 312 311 311 311 311 311 312 312 312 312 312 312 312 312 312 311 309 307 306 305 305 305 305 304 301 299 299 299 299 299 299 299 299 299 298 298 299 299 299 299 299
313 313 311 312 312 312 311 312 313 312 311 312 310 311 314 313 314 316 312 308 309 309 309 310 311 311 311 312 312 310 310 310 311 312 312 312 313 313 313 313 313 312 312 311 311 311 311 311 311 311 312 312 312 312 312 312 311 311 310 310 310 310 310 311 311 311 311 312 312 312 312 311 310 308 306 305 304 304 305 304 303 300 299 299 298 299 299 299 299 299 298 298 298 299 299 299 299
312 314 313 312 312 312 312 312 311 311 316 313 310 313 317 315 317 323 321 317 314 310 310 312 311 310 311 312 311 309 310 311 312 311 312 313 313 314 314 314 314 314 313 312 311 311 311 310 310 311 311 311 311 312 311 311 311 311 311 311 311 311 311 311 312 312 312 312 312 312 311 311 310 309 307 305 304 304 304 304 304 302 300 299 298 298 298 299 298 298 298 298 298 298 298 299 299
312 316 316 313 312 313 313 312 311 314 317 312 312 317 316 314 316 319 319 318 318 315 314 312 309 310 312 311 310 309 311 311 311 312 313 313 312 314 314 314 314 314 314 313 312 312 311 311 310 310 310 310 310 311 310 311 311 311 311 311 311 311 312 312 312 312 312 312 312 311 311 311 310 309 308 306 305 304 304 304 304 303 301 299 298 298 298 298 298 298 298 298 298 298 298 298 298
315 316 318 318 315 314 313 311 312 314 314 311 313 315 313 315 315 315 316 316 318 316 314 312 308 310 312 310 309 310 311 311 311 312 312 312 312 313 314 314 314 314 314 314 313 312 312 311 311 311 310 310 309 310 309 310 310 310 310 310 310 311 311 311 311 311 311 311 311 311 311 310 310 309 308 307 305 304 303 303 303 303 302 300 298 298 298 298 298 297 297 297 297 297 297 298 298
317 312 312 315 314 314 313 313 313 312 312 313 313 312 315 318 314 313 314 316 320 317 316 315 310 311 311 308 309 311 311 311 311 312 312 312 313 313 313 313 314 314 313 314 313 313 312 311 311 311 311 310 309 309 309 309 309 309 309 309 310 310 310 310 309 309 310 310 310 310 310 310 309 309 308 307 306 304 303 303 303 302 302 300 299 298 298 297 297 297 297 297 297 297 297 297 297
312 308 310 313 312 312 312 312 315 314 314 314 313 313 316 319 317 316 314 316 322 322 319 316 310 310 311 307 309 310 311 312 311 312 312 313 313 313 313 313 313 313 313 314 314 313 312 311 311 311 311 311 310 309 309 308 308 308 309 309 309 309 309 309 309 309 309 309 309 309 309 309 309 308 308 307 306 305 304 303 303 302 302 301 300 298 298 297 297 297 297 297 297 297 296 297 297
306 309 314 314 313 313 313 315 315 316 316 315 315 316 315 317 319 319 319 317 320 320 319 318 313 310 309 307 309 310 310 311 311 312 312 313 313 312 313 313 313 314 313 313 313 313 313 312 311 311 310 310 311 310 309 308 308 308 308 308 308 308 308 308 308 308 308 308 308 308 308 308 308 308 308 307 307 306 305 304 303 302 302 301 301 300 298 298 297 297 297 296 296 296 296 296 296
307 316 316 313 315 315 316 318 315 315 319 317 315 314 313 317 317 316 318 316 315 314 314 319 318 312 308 307 309 310 311 311 311 312 311 311 312 312 313 313 313 313 313 312 312 312 312 313 312 311 310 310 310 310 310 310 309 308 308 308 307 307 307 307 308 308 308 308 308 308 308 308 308 308 307 307 307 306 305 304 303 303 302 302 302 301 299 298 297 297 297 296 296 296 296 296 296
310 315 313 313 316 316 316 318 316 316 319 314 310 310 311 314 315 313 315 314 313 311 309 312 313 310 309 309 309 310 311 311 311 310 309 309 310 311 311 312 313 313 313 313 312 311 311 311 312 311 310 309 309 309 309 310 309 308 308 307 307 307 306 307 307 307 307 307 307 308 308 308 308 308 308 307 307 307 305 305 305 304 303 303 302 301 300 299 298 297 297 296 296 296 296 296 296
309 311 313 314 315 316 318 319 316 317 318 312 308 311 312 314 316 316 315 313 312 309 306 308 308 308 309 308 309 310 310 310 310 308 308 308 308 309 310 311 312 312 313 313 312 311 311 311 311 310 310 309 308 308 308 308 308 308 307 306 306 306 306 306 306 306 306 306 306 306 306 307 307 307 308 308 308 307 307 306 306 305 304 303 303 302 301 300 299 298 297 297 296 296 295 295 295
308 312 314 314 316 320 322 321 321 321 320 313 308 313 317 316 317 317 312 309 309 307 306 308 308 307 308 308 309 310 308 308 308 307 307 307 306 307 309 309 310 311 312 313 313 312 311 311 310 309 308 308 307 307 307 307 307 307 306 306 305 305 305 305 305 305 305 305 305 305 305 306 306 307 307 307 307 307 307 307 306 305 305 304 303 303 302 300 299 298 298 297 296 296 295 295 295
310 313 314 312 316 321 320 320 323 321 320 315 312 315 317 314 314 314 310 308 307 306 306 307 308 306 306 308 309 307 306 306 306 305 305 305 305 306 307 307 308 309 310 311 312 311 311 310 309 309 308 307 307 306 306 306 306 306 306 305 305 305 304 304 304 304 304 305 305 305 305 305 305 305 306 306 306 306 306 306 306 306 306 305 304 303 303 302 301 299 298 298 297 296 295 295 295
312 311 313 313 314 316 317 318 319 318 317 318 317 317 316 314 316 315 313 313 311 309 308 306 307 306 306 307 306 304 304 304 303 303 303 304 304 305 305 305 306 307 307 308 309 310 310 309 308 308 308 307 306 306 305 305 305 305 305 305 305 304 304 304 304 304 304 304 304 304 305 305 305 305 305 305 305 305 305 305 305 305 305 305 305 304 303 302 301 300 299 299 298 297 296 295 295
314 314 314 313 311 312 314 316 317 317 317 319 319 319 318 318 319 315 313 316 314 314 312 308 306 306 305 305 303 301 301 302 302 302 302 303 303 303 303 303 304 304 305 306 307 307 308 308 307 306 306 306 306 305 305 305 305 304 304 304 304 304 304 304 304 303 303 303 304 304 304 304 305 305 305 305 305 304 304 304 304 304 304 304 304 304 303 303 302 301 300 299 298 297 297 296 295
311 313 312 312 314 314 314 316 317 317 318 319 319 319 318 318 318 315 316 317 313 312 314 311 306 304 302 302 300 298 299 301 301 300 300 300 300 300 300 300 301 302 302 303 304 305 307 307 306 305 305 305 305 305 304 304 304 304 303 302 303 303 303 303 303 303 303 303 304 304 304 304 304 304 304 304 305 305 304 304 304 303 303 303 303 303 303 302 302 301 300 299 298 298 297 296 295
306 308 309 311 313 313 314 316 317 317 318 319 320 319 318 317 317 315 316 315 312 310 311 308 303 301 299 297 296 295 296 297 298 297 297 297 297 297 297 297 298 298 299 300 301 302 304 304 305 305 304 304 304 304 304 303 303 303 303 303 302 303 303 303 303 303 303 303 304 304 304 304 303 303 303 303 304 304 304 304 304 304 303 303 303 303 302 302 301 301 300 300 299 298 297 297 296
310 311 311 310 311 313 314 314 315 316 316 317 319 318 318 320 320 316 315 314 309 308 307 303 299 297 295 294 294 294 294 294 294 295 294 295 295 295 295 296 296 297 298 298 299 300 300 301 302 303 303 304 304 304 304 304 303 303 303 303 302 303 303 303 302 302 302 303 303 303 303 303 303 302 302 302 303 303 303 303 303 303 303 303 303 303 302 302 301 301 301 300 299 299 298 298 297
314 313 314 313 312 314 315 314 314 314 314 315 317 316 318 323 323 318 314 310 304 303 303 299 296 295 294 293 293 293 293 293 294 294 294 294 294 294 295 295 295 296 296 296 297 297 298 298 298 299 300 301 302 302 303 303 303 303 303 303 303 303 303 303 302 301 301 302 302 302 302 302 302 301 301 302 301 301 302 302 302 302 302 302 303 302 302 302 302 301 301 300 300 300 299 298 297
Wind_Speed
9 8 7 6 4 3 3 3 1 2 2 1 2 1 3 3 1 2 3 3 2 3 7 6 7 14 9 2 5 6 5 6 5 2 1 1 2 4 9 11 11 10 12 15 16 17 18 19 19 19 19 19 19 18 17 17 16 16 15 14 13 13 11 10 9 9 8 8 8 7 8 8 8 9 8 8 8 7 7 7 6 5 5 5 5 5 5 6 7 7 7 7 7 6 4 2 2
9 8 7 6 4 3 3 2 1 2 3 2 2 2 2 2 1 4 5 4 3 2 3 6 8 13 10 4 4 5 9 12 12 10 7 4 1 2 6 9 11 10 11 14 16 16 17 18 19 19 19 19 19 19 18 17 17 16 16 15 15 14 13 12 10 10 9 9 9 9 10 10 10 10 9 9 8 7 8 8 7 6 6 6 6 7 6 7 7 7 7 7 6 6 5 4 5
8 8 7 6 3 1 1 2 0 0 1 3 4 3 1 1 4 6 6 6 6 3 2 6 8 10 9 6 4 3 7 11 14 16 13 10 7 4 6 8 11 11 11 14 16 16 16 17 18 19 19 18 18 18 18 17 17 16 16 16 15 15 14 13 12 12 11 11 12 12 12 12 12 11 10 9 9 8 9 9 8 8 7 7 7 8 8 7 7 7 8 7 7 7 6 7 9
7 6 6 6 3 0 2 3 1 2 1 3 3 4 2 4 6 6 5 6 7 6 4 4 6 7 7 7 6 5 10 12 11 13 12 11 9 6 6 8 11 13 13 14 16 16 16 16 17 19 19 19 18 17 17 17 16 16 16 15 15 16 16 15 13 14 13 13 14 14 14 14 13 12 11 11 11 10 10 10 10 10 9 9 9 9 9 8 8 9 9 9 8 9 10 11 12
5 5 5 6 3 0 3 2 1 2 4 3 1 4 4 6 5 5 6 8 7 7 6 5 3 3 6 9 6 4 9 9 8 10 11 11 9 7 8 10 11 12 13 15 16 16 17 17 17 18 19 19 19 18 18 18 17 16 16 15 16 15 15 15 14 14 15 16 16 16 15 15 15 14 14 13 13 13 12 12 11 11 11 11 11 11 10 10 11 11 12 12 12 13 14 14 13
4 4 4 5 3 2 3 1 2 2 5 4 2 5 4 5 5 7 9 10 5 5 7 5 3 3 5 9 10 11 12 10 9 9 10 11 10 9 9 11 11 12 13 15 17 18 18 18 18 19 19 19 19 19 19 18 17 17 17 16 15 15 15 16 16 16 17 17 16 17 16 16 17 16 16 16 15 13 13 13 12 12 12 12 11 11 11 11 12 13 13 14 14 14 14 14 13
5 4 2 4 2 2 2 2 3 3 4 5 3 5 5 3 5 7 10 8 2 4 7 7 3 3 5 7 9 14 16 16 15 13 12 10 10 11 10 11 12 12 14 15 17 19 19 19 19 20 19 20 20 20 19 18 18 18 18 17 16 17 17 17 17 17 18 17 16 16 17 18 18 18 17 16 14 13 13 12 12 12 12 11 11 11 11 11 11 12 13 13 13 12 12 12 11
5 4 1 3 1 3 2 2 3 3 3 3 4 7 10 10 8 6 5 4 2 3 6 9 4 0 6 7 8 13 14 15 16 16 16 12 10 12 11 12 13 13 14 15 17 19 20 20 21 20 20 20 20 20 19 19 19 19 19 18 18 18 18 18 18 18 18 17 17 17 18 19 19 17 15 13 12 11 11 11 11 11 10 10 10 10 10 10 11 11 11 11 10 10 10 9 8
4 3 0 2 1 1 1 2 3 3 4 4 5 12 18 17 12 7 5 4 4 4 5 7 6 3 5 7 12 17 16 15 16 15 15 14 11 12 12 12 13 14 15 16 18 19 20 21 21 21 20 21 20 19 19 19 19 19 19 19 19 18 18 18 18 18 18 16 17 16 16 17 16 14 13 11 11 10 10 10 10 10 9 9 8 8 9 9 9 9 9 8 8 7 6 5 4
3 1 2 2 1 1 3 2 2 3 5 5 8 17 19 15 10 8 6 5 5 4 4 5 8 10 7 8 16 17 14 14 14 14 14 14 12 12 12 12 14 15 16 16 18 20 21 22 22 21 20 21 20 19 18 19 19 19 19 19 20 19 18 18 18 18 18 16 16 15 15 16 14 13 12 11 10 9 9 9 9 8 7 7 7 7 7 7 7 6 6 5 5 4 3 2 2
2 3 3 3 2 1 3 3 3 4 5 4 10 15 12 8 6 6 6 6 7 6 5 4 6 12 9 9 14 14 12 13 12 12 12 13 13 12 12 12 14 15 16 17 18 20 21 22 22 22 21 21 20 19 19 19 19 19 19 20 20 19 19 19 20 19 18 18 17 16 16 15 13 12 11 10 9 9 9 9 8 7 6 6 6 6 5 5 5 5 4 4 3 3 2 2 2
2 1 3 2 2 2 3 2 5 6 6 4 5 5 4 3 3 3 5 5 6 6 8 8 5 5 4 5 10 15 15 13 12 12 11 12 13 13 13 13 13 15 17 18 19 20 21 22 23 23 22 22 21 21 20 20 19 19 20 20 20 20 19 20 21 20 19 18 18 17 16 15 13 12 11 10 9 9 9 8 7 6 6 6 5 5 5 4 4 3 3 3 2 2 2 2 1
3 2 3 2 2 2 2 2 4 5 6 3 4 2 4 2 3 3 4 4 4 4 7 9 9 6 4 8 14 16 12 11 11 10 10 11 13 14 15 15 14 15 17 19 20 20 21 22 23 24 24 23 23 22 22 21 20 20 20 20 20 19 19 20 21 20 18 17 17 17 16 14 13 12 12 11 10 9 9 8 7 7 6 6 5 5 4 4 3 3 3 2 2 1 1 1 1
4 5 3 1 0 1 3 2 2 1 4 4 4 4 4 3 3 4 2 3 6 5 6 7 9 7 6 9 11 10 8 11 11 10 10 10 13 15 17 17 16 16 18 20 21 21 22 22 23 24 25 24 24 24 23 22 21 21 21 20 20 19 19 20 21 19 17 17 17 16 16 15 14 13 12 12 11 10 9 8 8 7 7 6 6 5 5 4 3 3 2 2 1 1 0 0 0
5 6 4 2 1 1 2 3 1 2 4 4 3 4 5 5 4 5 5 4 7 8 9 8 7 5 4 5 8 11 14 16 14 13 12 11 13 16 18 19 18 18 19 20 22 23 23 24 24 25 25 25 25 25 24 23 22 22 22 21 21 20 20 21 20 19 17 17 17 16 16 15 15 14 13 12 11 11 10 9 9 8 7 7 6 6 5 4 4 3 2 2 1 1 0 0 0
6 5 4 1 1 1 3 3 2 2 5 5 4 5 4 4 3 6 8 7 10 13 12 11 11 11 11 14 18 21 21 21 19 17 15 14 15 16 19 21 21 21 21 22 23 24 25 25 25 26 26 26 26 26 25 24 23 23 22 22 22 21 21 21 20 19 18 17 17 17 16 16 16 15 14 12 11 11 10 10 9 8 8 7 6 6 5 4 4 3 3 2 2 1 1 1 0
6 3 3 0 2 2 3 4 3 3 5 5 4 4 1 4 8 8 9 9 14 18 17 15 16 20 23 24 26 26 25 25 24 23 20 18 18 18 20 22 23 23 23 24 24 25 26 26 27 27 27 27 27 27 26 26 25 24 24 23 23 22 22 22 21 19 19 18 18 18 18 17 16 15 14 12 11 11 11 10 9 9 8 8 7 6 5 4 4 3 3 3 2 2 1 1 1
5 2 2 2 2 4 5 7 7 4 3 4 4 5 2 6 10 9 8 9 14 20 23 22 22 25 27 28 27 27 27 27 26 26 25 24 22 22 22 23 24 25 25 25 25 26 26 27 27 28 28 28 29 29 28 27 27 26 26 25 24 24 24 23 22 21 20 20 19 19 19 18 17 15 14 13 12 12 11 11 10 9 9 8 7 7 6 6 5 5 4 3 3 3 2 2 2
5 2 2 4 5 6 7 9 9 6 6 6 8 10 7 9 10 8 5 8 11 15 21 21 23 28 26 24 23 24 25 25 27 27 28 28 27 26 25 25 25 26 26 26 26 27 28 28 28 28 29 29 30 30 30 29 29 28 27 27 26 26 25 24 23 22 21 21 20 20 19 19 18 16 15 14 14 13 13 12 11 10 9 9 8 8 7 7 6 5 4 4 3 3 3 3 3
5 3 2 6 7 6 9 12 13 13 12 8 11 13 10 14 14 6 4 9 10 12 19 18 21 27 23 18 16 19 22 24 25 26 28 29 29 29 27 27 26 26 26 26 27 28 29 28 28 29 29 30 31 31 32 31 31 31 30 29 28 27 27 26 25 24 23 22 22 21 21 21 20 18 17 17 16 15 15 14 13 11 11 10 9 9 8 7 6 5 5 4 4 4 4 4 4
5 6 4 6 5 4 10 15 17 17 15 12 12 11 12 16 13 8 5 5 7 17 25 22 23 26 25 22 19 20 23 24 26 27 28 29 30 30 29 28 27 27 26 28 29 29 29 29 30 30 30 31 32 32 32 33 33 33 32 32 31 30 29 28 27 25 24 24 23 23 23 23 22 21 20 19 18 17 17 15 14 13 12 11 11 10 9 8 7 6 5 5 4 4 4 5 5
4 8 11 9 6 4 9 11 13 13 12 12 9 8 13 14 12 12 9 6 12 24 31 29 31 30 28 28 26 26 27 27 28 28 28 28 29 30 29 28 27 28 28 29 29 29 30 31 31 31 32 32 33 33 33 34 34 35 34 34 33 32 31 30 29 27 26 26 25 25 26 26 25 24 22 21 20 19 18 16 15 14 14 13 12 11 10 9 8 6 6 5 5 5 5 5 5
5 7 11 15 13 10 12 10 10 12 10 10 9 12 18 13 13 15 14 18 29 38 37 36 38 35 31 31 31 32 30 29 28 26 26 26 26 27 26 26 26 27 28 29 28 29 31 32 33 33 33 34 34 34 34 35 35 35 35 35 35 34 33 32 31 29 28 27 27 27 28 28 28 26 25 23 22 21 19 18 17 17 16 15 14 12 11 10 9 7 6 6 5 5 6 6 6
6 4 6 13 16 17 20 16 13 15 14 17 16 17 22 15 11 13 15 28 40 42 40 39 39 36 34 33 32 31 28 27 24 22 23 22 22 22 23 24 25 26 28 29 29 29 30 31 33 33 34 35 35 35 35 36 36 36 36 37 37 36 35 34 33 30 29 29 29 29 30 30 29 28 27 25 23 22 21 20 20 18 17 16 15 14 13 11 10 8 7 7 6 6 6 6 7
7 8 8 8 12 17 21 18 17 18 20 23 18 17 28 26 15 14 27 41 44 39 37 36 34 33 32 32 30 27 25 25 23 22 21 20 20 21 22 23 24 26 27 28 28 29 29 30 32 33 35 36 36 36 37 36 36 37 38 38 38 38 37 36 34 33 32 31 31 31 31 32 31 30 28 26 25 24 23 23 21 20 19 18 17 15 14 12 11 9 8 8 7 7 7 7 7
9 12 10 8 12 17 18 19 19 19 22 21 11 15 30 28 13 15 36 43 35 30 30 29 28 29 31 30 29 27 27 26 26 24 22 20 20 21 21 21 24 24 24 27 28 29 29 30 31 32 34 36 37 37 38 38 38 38 38 38 38 39 39 38 36 35 34 34 33 33 33 33 33 32 30 28 27 26 25 24 23 22 21 19 18 16 15 13 12 11 10 9 8 8 7 7 7
7 8 10 14 17 20 18 17 20 17 22 22 12 13 25 21 5 11 36 36 23 24 27 29 28 30 32 32 32 30 30 29 27 26 25 23 23 22 21 22 24 22 22 26 26 27 29 30 31 32 34 35 37 38 38 39 40 40 39 39 39 39 39 39 39 38 37 36 35 35 34 34 34 33 32 31 29 28 27 26 24 23 22 21 19 18 16 15 14 12 11 10 9 9 8 8 8
7 5 9 14 15 19 16 14 21 16 14 18 15 11 18 14 3 17 39 33 23 26 29 31 30 31 32 31 32 31 31 29 27 27 27 27 26 25 25 25 25 24 24 24 23 26 28 29 31 32 33 35 37 38 38 40 41 41 40 40 40 40 40 41 40 40 39 38 37 37 36 36 35 35 34 33 31 30 29 27 26 24 23 22 21 19 18 17 16 14 13 12 11 10 10 9 9
7 4 5 10 9 14 14 13 17 12 6 7 9 5 10 7 11 28 39 30 24 24 25 31 31 32 31 28 28 29 29 28 28 31 31 32 31 30 31 30 29 28 28 25 25 26 27 28 30 32 33 35 37 38 39 40 41 41 42 41 41 41 41 42 42 42 41 40 39 39 38 37 37 36 36 35 33 32 31 29 27 26 24 23 22 21 20 19 17 16 14 13 12 11 11 10 10
6 2 0 6 6 8 9 7 6 5 5 6 9 3 7 7 19 34 34 24 20 20 24 30 31 31 29 28 29 30 32 33 34 37 38 38 37 36 38 36 33 32 31 29 29 28 27 28 30 31 33 35 36 38 39 40 40 41 42 43 42 42 42 43 43 43 43 42 41 41 40 39 38 38 37 37 35 34 33 31 29 27 26 25 24 23 22 20 19 17 16 14 14 13 12 11 11
3 2 0 2 3 6 6 1 3 2 4 12 9 5 8 8 21 33 31 23 17 18 25 28 29 32 33 34 35 37 39 39 40 41 41 41 41 40 41 40 38 37 35 34 32 29 29 29 30 31 32 35 37 38 39 40 41 41 42 43 43 43 43 43 44 44 44 44 43 43 42 41 40 39 39 38 37 36 35 33 31 29 27 26 25 24 24 22 20 19 17 16 15 14 13 12 12
2 2 4 1 3 5 9 6 6 7 5 11 9 5 8 9 19 30 25 18 15 17 23 27 33 37 39 41 41 42 44 43 43 42 42 42 42 43 42 42 41 41 40 38 36 33 32 32 32 32 33 34 36 38 39 40 41 42 42 43 44 44 44 45 45 45 45 45 45 45 44 43 42 40 39 39 39 38 37 35 32 31 29 28 27 26 25 24 22 21 19 17 16 15 15 14 13
2 2 5 4 5 4 6 9 9 9 3 6 8 6 6 6 14 23 20 18 20 23 28 33 39 42 42 43 42 45 46 44 45 42 40 40 41 42 41 41 40 39 39 38 38 36 35 35 35 35 34 34 35 37 39 40 42 43 43 44 44 45 45 46 46 46 47 47 47 47 47 45 43 41 41 40 40 39 38 36 34 33 32 30 29 28 27 26 24 22 20 19 18 17 16 15 14
3 2 4 4 5 4 3 7 10 5 4 6 7 7 11 11 12 23 29 29 25 26 34 36 37 40 42 44 44 45 45 45 46 42 39 40 40 40 39 38 37 35 35 35 36 35 35 35 36 36 35 35 35 37 39 41 42 43 45 45 46 46 47 47 47 48 48 49 49 49 48 47 45 43 42 42 41 40 39 38 37 35 34 32 31 31 29 27 26 24 22 21 20 18 18 17 16
6 5 5 4 3 4 5 6 6 6 5 6 4 8 15 14 14 23 33 34 24 25 35 37 36 39 42 44 44 44 44 46 45 42 40 40 38 38 37 36 34 33 31 32 32 32 32 33 34 35 35 35 34 36 39 41 43 44 46 47 48 49 49 50 50 50 50 50 50 50 49 48 47 45 44 43 42 41 40 40 39 38 36 35 34 33 31 30 28 26 24 23 21 20 20 20 18
6 4 4 6 6 6 6 8 7 5 10 10 9 16 17 14 14 16 26 31 25 26 34 37 36 38 40 40 41 43 45 45 43 40 38 35 34 33 32 32 31 30 29 28 28 29 30 30 32 34 34 34 34 36 38 41 43 45 47 48 50 50 51 51 51 51 51 51 51 51 51 50 48 47 45 44 43 42 42 42 42 40 38 37 36 35 33 31 29 28 26 25 24 23 23 22 21
2 2 4 6 6 8 8 10 9 2 5 9 10 19 19 15 13 13 24 28 23 25 30 32 35 38 38 36 41 44 44 44 39 33 31 29 30 29 29 28 26 26 25 24 24 25 26 27 30 31 32 33 34 35 37 40 42 45 47 48 49 50 51 52 52 52 52 51 51 51 52 51 50 49 47 46 45 44 44 44 43 42 40 39 38 36 34 32 30 29 28 27 26 26 25 24 23
4 5 6 6 5 10 10 9 10 1 2 5 6 16 19 15 14 14 21 21 21 26 22 24 32 36 38 38 42 42 40 39 31 26 28 29 28 27 26 25 23 23 21 21 21 20 21 23 26 28 29 31 32 34 36 39 41 43 45 45 46 48 50 51 51 52 52 51 52 52 53 52 51 50 49 48 47 46 45 45 44 43 42 41 40 38 36 34 33 32 31 30 29 28 27 26 24
6 4 5 6 3 8 9 6 7 2 2 6 7 15 16 14 17 18 20 19 24 29 22 24 32 34 39 39 37 36 34 33 28 27 29 27 25 23 21 21 20 19 19 20 20 19 19 20 22 25 26 28 30 32 34 36 38 40 42 43 44 46 48 50 51 51 51 52 53 54 54 53 53 52 51 50 49 48 46 45 45 44 44 43 42 41 39 38 36 35 34 32 31 30 29 28 27
6 4 4 7 3 4 6 4 5 3 3 6 10 16 13 12 15 15 17 19 24 31 29 29 34 37 40 38 32 30 28 29 29 28 26 24 23 23 24 24 22 19 17 17 17 17 18 18 19 21 23 24 27 29 31 33 35 38 40 42 43 45 46 47 48 49 51 53 54 54 54 54 54 54 53 52 51 49 47 46 45 45 45 45 44 43 42 40 39 37 36 34 33 32 31 30 28
6 6 5 9 8 8 9 5 6 6 4 4 7 12 10 4 6 5 7 9 15 24 26 29 35 33 33 34 29 22 21 24 26 23 23 25 26 29 30 29 29 26 20 14 14 15 16 17 18 19 21 23 25 27 29 32 34 37 39 41 43 45 46 46 47 49 51 53 55 54 54 55 55 55 54 53 52 50 48 47 46 46 46 46 46 45 44 42 40 38 37 36 36 35 33 31 29
5 5 10 14 13 10 11 8 7 5 4 3 5 8 7 1 1 4 4 3 6 12 16 22 22 14 17 23 18 15 17 18 17 19 25 29 31 34 33 32 32 31 28 21 14 14 16 17 18 19 22 24 25 27 29 31 33 35 37 39 41 43 45 46 47 48 49 50 51 52 53 54 55 55 55 54 53 51 50 48 47 46 47 47 47 47 45 43 42 40 38 38 37 35 34 33 31
6 5 11 13 11 9 10 7 3 1 3 2 3 1 8 4 1 6 4 2 7 11 12 13 11 13 16 16 13 14 15 16 17 21 25 28 32 35 34 34 33 32 32 29 22 15 15 16 18 19 21 23 25 28 30 32 34 35 37 38 39 40 41 42 43 45 45 45 46 47 49 52 54 55 55 54 54 52 51 50 48 47 47 48 48 48 47 45 43 41 39 38 37 36 36 35 33
6 5 7 9 8 8 6 4 3 4 3 3 1 4 6 9 4 4 2 4 9 13 11 9 10 17 20 11 12 15 17 18 20 23 26 28 33 37 35 35 34 32 31 31 29 23 17 15 17 19 20 23 25 28 30 32 34 35 36 36 37 38 38 39 40 41 42 43 44 45 46 49 51 53 54 54 54 54 52 51 50 49 48 48 48 48 47 46 44 42 41 40 39 38 37 36 34
6 3 5 5 5 4 4 4 4 2 3 4 2 4 3 9 4 2 1 4 8 11 10 10 9 15 18 8 13 18 19 20 23 27 29 32 35 35 34 33 33 31 30 29 30 29 24 18 16 17 19 22 24 27 29 31 34 35 35 36 36 36 37 38 39 40 41 41 43 44 45 46 48 51 53 54 55 54 54 53 52 50 49 49 48 48 47 46 44 43 42 41 40 39 38 37 36
4 5 6 4 3 3 3 3 3 2 3 4 4 4 3 10 5 3 2 2 5 7 7 8 8 7 8 9 13 17 18 21 27 29 31 33 33 32 31 32 31 32 31 28 28 29 28 24 19 17 16 18 21 24 26 28 30 32 34 35 36 36 36 37 38 39 40 41 42 43 44 45 46 48 51 53 54 54 54 54 53 52 50 49 48 48 48 47 45 44 43 42 41 40 39 38 37
5 7 5 5 4 4 3 1 3 1 5 5 9 10 5 6 4 4 3 3 5 4 4 6 8 5 10 12 13 15 18 23 28 30 30 29 29 29 30 31 32 32 32 31 29 28 28 27 24 20 17 16 18 19 21 23 26 29 32 34 35 36 37 37 37 37 38 39 40 42 42 43 44 45 48 51 53 54 54 54 54 53 51 50 50 49 49 48 46 45 43 42 42 41 40 39 38
4 4 3 3 3 3 4 4 3 1 6 5 8 10 8 7 5 0 4 6 5 3 3 5 9 12 7 11 15 17 20 25 30 30 29 27 27 29 31 32 32 32 33 34 32 30 29 27 25 22 20 17 16 17 18 19 22 25 28 31 33 35 36 37 37 37 37 37 37 39 40 41 42 43 46 48 51 52 54 54 54 53 53 52 51 50 49 48 47 45 44 44 43 43 42 41 40
3 3 3 0 3 3 3 3 0 3 7 4 2 3 5 9 6 4 10 13 8 5 7 9 9 16 16 11 15 17 22 27 28 28 26 26 27 29 31 31 31 31 32 32 32 31 30 29 26 22 19 17 15 15 17 19 21 23 25 28 30 32 34 36 37 37 37 37 37 38 38 39 39 41 42 44 46 49 51 52 53 53 53 52 52 51 50 49 48 46 46 45 45 44 44 43 43
5 4 4 3 2 2 3 3 2 4 5 4 2 2 4 7 5 7 13 13 9 2 6 9 8 13 12 10 15 19 24 25 25 24 23 25 27 29 29 28 29 30 31 31 32 31 30 30 28 24 19 16 15 14 15 17 19 21 23 26 28 31 33 34 36 37 37 38 38 38 38 37 37 37 38 39 41 44 47 48 50 51 51 51 51 51 51 50 49 48 47 46 46 45 45 44 44
5 3 3 3 3 4 4 3 4 4 3 3 2 2 4 4 3 5 9 9 10 9 8 9 10 12 4 11 17 21 23 23 22 22 22 25 26 27 27 28 28 28 29 30 30 30 30 30 30 28 23 18 15 13 13 15 17 19 21 24 27 29 31 33 35 35 36 37 38 38 38 37 36 35 35 36 37 40 43 44 46 47 48 49 50 51 51 51 50 49 48 47 46 46 46 46 45
3 3 3 3 3 4 3 3 4 2 2 3 2 3 5 4 6 10 9 8 10 10 6 4 5 3 8 15 20 22 23 23 21 21 24 25 25 26 27 28 28 27 28 28 29 30 31 30 29 28 26 22 18 15 14 14 15 18 19 21 24 27 29 31 33 35 36 36 37 37 38 37 37 36 35 35 36 38 39 41 43 45 46 47 48 49 50 51 51 51 50 49 48 48 47 47 47
1 2 3 4 3 4 2 3 1 2 3 4 3 5 7 6 10 9 2 2 4 6 5 4 7 12 16 19 24 24 24 24 22 23 24 25 26 27 27 28 28 29 29 28 28 29 30 30 29 28 26 23 20 17 15 14 15 16 18 20 22 25 27 29 31 33 34 36 36 37 37 37 37 36 36 36 37 37 38 40 42 43 45 46 47 47 49 50 51 51 51 50 50 49 49 48 47
4 3 5 2 2 2 1 1 1 1 6 5 3 8 9 6 7 5 4 3 3 6 6 5 8 15 19 22 25 26 26 25 24 25 25 26 27 27 27 28 28 28 27 26 26 26 27 29 30 29 28 26 23 19 16 15 15 15 17 19 21 22 25 27 29 31 33 34 36 36 37 37 37 36 36 37 38 38 39 40 41 42 43 45 46 47 48 49 50 51 52 51 51 50 49 49 49
4 2 2 2 2 3 1 2 2 3 6 4 4 9 8 6 7 8 7 6 1 3 6 8 11 16 20 22 24 26 28 28 27 28 28 28 29 29 29 29 28 27 26 25 24 23 23 25 28 29 28 27 26 24 20 18 16 16 15 15 17 19 21 24 27 29 31 33 34 35 37 38 37 37 38 38 39 39 39 40 41 41 42 44 45 46 47 49 50 51 52 52 52 51 51 51 50
1 1 2 1 3 3 2 2 2 3 6 4 5 7 6 5 8 11 11 5 1 4 7 9 11 15 19 22 23 25 27 29 28 28 29 29 30 31 31 31 31 30 28 27 25 25 24 23 24 25 26 26 26 25 24 22 19 17 15 12 12 15 17 20 24 27 30 31 32 33 35 36 37 38 39 40 41 41 41 41 41 41 42 43 44 45 46 48 50 51 52 52 52 52 52 52 51
2 1 3 2 2 1 2 2 2 4 7 7 7 8 6 5 5 7 6 3 6 7 7 7 10 15 18 21 22 22 25 26 26 27 29 29 30 31 31 32 32 31 30 29 28 27 26 25 24 24 24 25 25 25 25 25 23 22 19 15 12 12 14 17 20 23 26 29 30 32 33 34 36 38 39 40 42 43 43 43 43 43 43 43 44 44 45 47 49 51 51 52 53 53 53 53 52
5 5 5 6 5 3 4 6 5 5 6 6 8 10 7 3 4 6 4 6 7 7 8 7 11 15 17 20 23 23 24 26 26 28 29 30 31 32 32 32 32 33 33 33 32 31 29 28 27 26 25 25 25 25 25 25 25 24 23 21 18 15 15 16 18 21 24 26 28 30 32 34 36 37 38 39 41 42 43 44 45 45 45 45 45 45 45 46 48 49 51 52 53 54 54 54 54
Wind_Direction
244 246 250 248 256 256 286 355 351 13 58 241 281 252 253 248 301 280 279 274 263 252 210 213 175 164 159 169 221 248 254 208 194 167 239 267 90 151 168 175 181 178 184 193 197 197 199 201 201 200 199 197 198 198 198 200 201 203 205 207 211 212 213 213 210 207 205 204 205 203 202 202 206 206 209 219 220 216 220 219 215 214 216 220 208 203 212 220 230 230 233 238 236 243 251 260 325
244 244 248 244 253 258 262 18 40 332 27 297 273 192 267 310 311 247 232 234 242 288 220 208 189 189 204 243 267 276 266 244 240 245 263 278 277 178 186 188 187 184 182 189 197 199 201 203 203 203 201 201 202 202 201 202 204 207 207 208 212 216 216 215 212 208 206 204 204 202 204 206 209 211 214 219 223 221 223 226 225 225 224 223 217 216 225 233 242 244 243 248 251 252 248 257 297
246 242 242 233 234 263 232 39 90 6 20 279 276 227 252 231 229 234 230 254 271 281 232 195 193 209 221 244 264 242 258 255 251 253 261 263 254 238 205 199 189 185 186 188 194 199 201 204 206 205 204 203 203 202 201 200 201 204 207 208 209 212 212 209 207 205 204 202 203 207 210 212 216 221 223 224 230 232 229 234 237 238 238 238 238 236 240 243 245 250 251 256 257 248 250 269 287
246 240 228 211 203 13 80 43 133 137 226 247 280 256 219 214 232 243 270 304 285 250 221 186 199 226 225 235 247 246 263 262 263 258 254 257 254 246 218 201 192 187 188 189 192 197 200 204 207 208 207 206 205 203 201 200 200 202 208 209 209 209 207 202 201 203 204 205 207 214 217 219 226 230 232 233 238 243 242 243 241 242 243 245 250 249 248 248 249 255 257 258 253 248 258 271 280
239 228 210 200 189 146 100 60 96 137 218 193 248 261 224 222 241 274 312 330 292 244 215 195 222 254 236 242 240 241 264 266 276 263 251 255 250 241 222 204 196 192 188 188 191 196 200 202 205 208 209 208 208 206 204 205 203 204 209 210 210 208 205 202 202 204 205 209 213 219 223 226 231 232 234 241 247 250 250 248 244 243 245 248 251 252 252 249 250 254 256 257 257 259 266 271 275
210 185 185 184 160 138 126 154 180 206 229 172 218 265 248 229 252 288 319 333 303 226 212 210 261 303 273 258 243 245 264 274 280 272 263 257 244 239 227 211 202 197 193 189 192 196 201 202 203 206 207 208 209 208 207 207 205 205 206 206 207 204 203 204 205 207 208 213 216 221 226 230 233 235 240 247 251 251 249 247 245 245 247 251 252 252 253 250 249 250 253 255 259 263 266 269 271
179 163 148 154 122 76 130 202 203 239 240 174 199 270 287 278 275 297 326 342 342 211 215 219 261 316 285 272 258 262 271 273 273 275 274 266 243 236 229 218 210 205 200 196 196 198 203 204 204 206 205 205 207 208 207 206 203 202 203 202 205 205 204 206 209 211 214 215 217 223 228 234 240 243 247 250 250 248 248 248 247 246 247 248 248 249 250 250 250 250 252 254 258 261 264 268 270
173 177 132 141 73 23 120 225 241 230 237 219 235 261 276 289 289 292 311 316 280 247 221 225 229 321 272 267 268 279 285 281 278 276 270 267 251 236 231 223 217 214 210 205 203 202 204 206 206 207 205 204 206 208 206 206 204 202 204 204 208 212 211 213 217 220 222 221 222 228 233 238 244 247 248 248 248 247 249 250 250 248 246 245 244 245 245 246 248 249 252 254 257 259 262 265 268
165 190 90 110 142 9 9 288 270 236 251 264 252 259 271 281 280 267 266 270 261 252 237 228 196 195 277 269 273 290 297 292 289 284 272 264 255 239 233 228 224 221 218 213 209 208 208 208 209 210 207 205 208 209 208 207 206 206 207 209 214 219 222 223 223 226 227 226 226 230 234 240 246 248 246 245 245 245 246 247 247 246 244 243 242 241 241 242 244 247 248 250 251 252 254 257 262
129 117 116 92 112 328 315 277 257 253 251 256 269 273 280 281 268 250 248 266 262 245 251 227 197 221 262 278 280 299 307 303 299 290 278 263 254 242 235 229 224 223 224 221 215 213 212 212 212 212 211 208 210 212 212 210 210 211 210 213 220 225 230 230 229 231 229 228 230 229 232 241 248 249 244 241 240 238 240 241 240 240 239 238 237 236 235 235 235 234 232 233 231 234 238 244 257
110 49 102 89 71 284 276 261 266 271 265 286 285 279 287 283 258 237 231 255 258 239 229 194 199 230 248 272 281 306 312 310 308 294 281 262 252 245 235 225 219 221 225 225 220 218 216 216 215 215 214 211 212 214 215 215 215 216 215 217 222 227 231 233 234 236 234 232 234 233 235 242 246 244 240 236 234 233 233 233 233 231 229 228 227 225 222 218 216 214 212 213 216 223 231 249 266
160 29 81 101 156 208 231 251 272 284 295 302 271 275 322 275 205 211 215 240 254 247 240 213 218 241 229 257 284 306 309 309 308 295 281 263 251 242 233 225 223 224 224 224 224 221 219 219 218 218 217 214 214 215 217 218 219 219 220 221 224 230 232 234 237 237 235 233 233 235 238 240 239 237 234 230 227 225 225 224 223 219 216 216 216 213 211 209 209 207 207 209 212 224 230 249 263
177 146 95 133 185 181 177 241 274 303 307 270 230 291 330 242 201 247 214 228 242 246 264 236 235 251 245 268 286 297 307 315 314 302 284 265 251 239 232 231 231 227 223 223 223 224 223 223 222 221 221 219 217 217 219 219 220 221 222 224 226 231 234 236 238 237 235 232 232 233 235 234 231 229 225 221 218 217 216 216 213 211 209 208 210 209 212 213 215 213 212 217 215 229 230 243 257
172 156 126 147 145 145 169 263 282 311 287 256 257 291 302 272 271 286 245 250 254 241 279 266 235 247 264 270 285 296 312 316 313 306 289 269 253 242 236 234 234 228 224 225 223 224 225 227 226 225 224 223 221 221 222 222 222 223 224 226 228 232 234 236 238 237 235 232 231 231 230 227 223 220 215 211 210 210 210 210 210 209 208 206 208 208 211 211 213 218 217 228 225 237 251 271 317
165 151 108 118 71 321 206 246 186 138 257 251 260 283 291 291 292 285 274 261 275 271 273 271 230 234 256 238 275 295 301 302 299 296 288 274 260 248 241 236 233 229 227 227 225 225 225 227 229 229 229 227 226 225 225 225 224 224 226 228 230 232 234 235 236 235 233 231 230 228 226 221 217 213 208 207 207 208 208 207 208 207 207 205 208 206 205 206 205 211 210 213 212 205 238 309 357
162 146 72 100 216 270 216 213 141 135 249 245 240 272 302 302 297 293 291 269 278 283 268 256 239 247 259 258 277 289 291 292 290 286 281 274 263 252 247 240 236 231 229 228 227 227 226 227 228 230 232 231 231 230 230 229 227 227 228 229 231 232 233 234 235 234 232 229 228 226 221 217 213 210 208 209 209 209 207 206 206 205 205 204 206 206 203 206 204 205 204 199 205 208 224 256 332
159 138 69 300 207 207 204 194 188 180 253 263 245 256 273 301 301 296 294 272 273 281 271 262 256 259 267 272 280 283 284 285 283 281 276 270 262 254 249 244 241 236 233 232 230 229 229 229 229 229 230 232 233 233 233 231 230 229 230 230 230 231 232 232 233 233 231 229 228 223 218 215 212 211 211 212 211 210 210 207 207 205 203 203 202 204 202 205 206 206 210 212 225 241 257 282 310
158 115 115 218 206 202 189 188 200 185 252 262 251 275 275 290 302 302 294 265 268 278 273 269 266 266 269 275 281 281 281 281 280 278 275 270 263 256 252 249 247 244 240 236 234 232 232 232 230 230 230 230 232 234 234 233 231 231 231 232 231 231 232 231 232 232 231 229 228 223 217 215 213 213 214 213 213 213 213 210 210 208 203 203 201 202 203 203 207 210 217 229 245 262 277 295 310
163 114 147 224 209 205 197 200 208 205 249 265 275 290 288 281 291 296 285 266 274 281 277 271 268 273 275 275 280 281 280 279 278 277 274 272 267 263 259 254 250 249 247 244 242 238 236 234 233 233 232 230 230 232 233 233 232 232 232 233 232 232 232 232 232 232 232 231 229 224 218 216 214 214 214 213 214 214 215 214 213 211 206 206 205 204 206 207 210 217 225 238 253 269 283 296 309
191 153 190 241 221 225 225 228 237 241 259 277 285 290 282 280 284 271 252 278 280 266 271 269 265 280 290 287 282 280 280 279 277 275 273 272 270 267 263 259 256 255 254 253 249 244 240 238 237 236 235 233 231 231 232 233 233 233 233 233 233 232 232 233 233 233 233 232 228 223 219 217 216 215 214 213 214 215 216 216 215 212 211 210 210 210 212 215 218 226 235 248 261 274 286 294 304
187 168 204 231 196 236 242 243 256 258 263 268 277 290 285 285 280 244 231 293 276 258 271 274 270 283 295 296 289 281 279 279 277 275 273 271 270 268 265 265 265 262 258 255 251 248 246 243 240 239 237 235 233 233 233 234 234 234 233 233 233 232 233 233 234 234 233 232 227 222 219 218 217 216 216 215 215 217 217 219 217 215 214 212 212 214 215 219 225 234 244 256 267 276 283 291 301
186 207 228 232 198 243 260 256 266 267 263 265 269 281 284 287 277 250 219 225 262 272 281 284 283 285 290 291 289 283 280 280 280 278 277 275 273 270 268 267 266 262 257 253 252 250 249 246 243 240 239 237 235 234 234 234 235 235 234 233 233 233 233 234 234 234 233 231 227 222 220 218 218 218 218 218 217 218 219 219 217 216 215 214 214 216 217 221 227 235 245 254 264 274 281 290 299
225 241 233 242 237 245 268 263 264 273 268 264 264 277 284 286 287 267 217 229 269 284 287 286 287 286 285 286 284 283 283 283 282 280 281 280 277 275 272 269 266 264 262 259 256 251 249 247 245 242 241 240 238 236 235 235 235 236 236 234 234 234 234 234 234 234 233 232 229 224 222 221 220 220 220 219 219 219 220 218 217 217 216 216 216 217 219 222 227 233 241 252 261 271 282 292 301
227 269 238 247 247 249 264 265 266 273 268 269 273 282 282 271 281 281 244 254 274 287 291 287 288 287 283 282 282 283 284 283 281 281 282 282 283 281 275 271 267 264 261 258 255 251 249 247 246 245 244 242 240 239 237 236 236 236 236 235 234 235 235 236 236 235 234 232 230 227 225 223 223 222 222 221 220 220 220 219 218 218 217 217 218 218 220 223 228 234 240 249 259 270 281 290 298
211 244 252 251 254 258 269 273 273 274 273 276 273 269 272 270 272 275 269 271 277 285 291 289 287 287 283 282 284 284 283 282 281 281 282 284 285 281 274 268 262 259 256 253 251 250 248 247 245 244 244 243 242 240 239 239 238 237 237 236 235 235 235 236 236 235 235 233 231 229 227 226 225 224 224 223 222 222 221 221 220 220 218 218 219 220 221 223 227 233 240 247 255 266 276 284 293
212 229 254 267 269 273 278 277 275 277 276 270 253 256 267 275 282 268 271 275 280 284 288 288 287 287 287 286 288 286 283 284 284 282 282 282 277 274 275 270 263 263 263 258 254 250 247 246 244 242 242 243 242 241 241 240 240 239 238 238 237 237 236 236 236 235 235 234 232 232 231 229 227 226 226 225 224 224 223 223 222 220 220 220 221 222 222 224 227 231 238 245 252 261 269 279 289
234 244 272 275 277 283 280 275 275 273 272 258 224 248 265 273 300 263 272 277 280 282 284 286 286 288 291 290 291 290 286 287 287 282 279 275 270 274 281 275 270 272 269 263 260 255 249 246 245 242 241 241 242 241 241 241 240 240 240 239 239 238 238 236 235 235 235 234 233 233 233 231 229 227 227 226 225 225 225 225 224 222 222 222 221 222 223 225 227 228 233 240 248 255 264 274 284
275 305 297 284 292 294 278 266 272 261 268 257 220 242 272 276 234 249 271 279 279 279 283 287 285 286 290 291 292 291 289 291 290 282 279 278 276 280 282 276 275 274 270 270 269 262 255 251 247 244 242 241 241 240 240 240 240 240 240 239 240 239 239 237 236 236 235 234 234 234 234 233 231 229 228 227 226 226 227 226 225 225 224 224 222 223 223 225 227 229 233 239 245 251 260 270 278
290 327 305 296 323 306 273 253 264 239 243 253 187 231 282 257 229 255 273 281 279 279 281 286 286 286 286 287 289 289 288 290 288 284 283 283 281 280 279 276 274 271 270 271 268 264 260 256 252 248 245 242 242 241 240 239 240 240 240 240 240 239 238 238 237 237 236 235 234 234 234 233 232 231 230 229 227 227 228 227 226 226 225 225 223 224 225 226 229 232 235 238 243 249 257 264 272
290 324 222 306 333 309 270 238 249 220 219 180 147 241 266 233 247 263 278 281 280 281 278 282 284 284 285 284 286 285 285 285 283 283 283 282 279 277 277 276 274 271 271 267 262 263 266 262 257 253 248 245 244 243 241 240 239 239 239 240 239 239 239 239 238 237 236 235 234 235 234 234 233 232 231 230 228 228 228 227 227 227 226 225 224 225 227 229 231 233 236 238 241 246 252 258 265
289 303 170 318 291 283 294 252 152 249 235 170 158 264 250 249 262 268 279 279 281 280 276 283 282 283 285 285 285 283 284 284 283 283 283 281 280 278 277 277 277 275 274 270 266 266 267 266 263 259 254 250 246 244 243 241 240 239 238 239 239 239 239 238 238 238 237 235 235 235 235 235 234 233 231 230 229 229 229 228 227 227 227 226 225 226 228 230 231 233 234 236 240 244 249 254 260
15 287 279 270 213 266 307 299 203 237 250 167 167 258 254 254 263 271 280 281 286 284 280 285 284 285 286 285 285 284 285 285 284 283 282 282 282 281 280 280 280 279 278 276 274 270 266 266 267 264 261 256 251 247 245 243 242 241 239 239 239 239 239 239 238 238 237 236 235 235 235 234 234 233 232 231 230 230 230 230 229 228 227 226 226 227 228 230 231 232 233 234 238 242 246 251 255
345 223 254 251 241 281 320 301 258 240 219 177 208 243 266 259 259 274 285 286 291 291 285 283 283 285 286 286 286 284 284 285 286 287 286 286 286 287 286 285 283 281 280 277 274 271 268 268 267 266 264 263 259 252 247 245 243 242 241 240 239 239 239 239 239 238 237 236 235 235 235 234 234 234 233 232 231 230 231 231 230 229 228 227 227 228 229 230 231 231 233 234 236 239 243 248 251
283 223 243 241 245 276 302 296 299 284 171 203 240 242 254 263 272 281 283 285 288 285 283 282 282 285 285 286 284 283 283 283 288 293 293 292 292 294 294 292 290 287 284 279 276 273 270 269 267 266 264 263 261 256 251 247 245 243 242 241 240 240 240 239 239 238 237 236 235 235 235 234 234 234 233 232 231 231 231 231 231 230 228 227 227 228 228 229 229 230 232 233 235 237 240 244 248
240 234 254 280 262 252 253 260 301 325 258 236 276 262 257 265 275 277 280 284 280 273 279 281 281 282 282 282 282 284 284 284 290 297 298 298 300 302 301 300 297 293 289 283 280 276 272 269 267 265 262 260 259 257 252 247 245 243 242 241 240 239 239 238 238 238 237 236 235 235 235 234 234 234 233 233 232 230 230 230 230 229 228 227 227 228 228 228 229 230 231 232 233 235 239 242 245
235 227 245 283 283 252 237 249 261 296 284 274 276 273 271 272 272 274 279 281 277 272 275 278 279 279 279 281 282 284 284 287 294 299 302 306 308 309 308 306 302 297 293 287 282 278 273 270 267 263 260 258 256 253 250 245 243 241 240 239 238 238 238 237 237 237 237 237 236 235 235 234 234 234 233 233 232 231 230 230 230 229 228 228 228 229 230 230 231 232 233 232 232 234 237 239 243
323 251 260 263 271 272 260 266 268 223 276 271 259 272 280 279 278 277 278 281 278 269 267 271 276 278 279 281 282 283 284 289 297 302 309 314 316 320 319 314 308 300 295 290 286 282 278 275 270 266 262 258 253 250 248 245 242 240 239 239 238 238 238 237 237 237 237 237 236 236 235 234 234 234 234 233 232 231 230 230 230 229 229 229 230 232 232 233 232 232 233 232 232 234 236 239 241
287 256 276 269 249 271 267 269 281 238 247 263 248 273 280 279 279 272 271 273 266 261 264 271 275 278 280 279 280 283 286 293 303 313 319 327 334 337 332 326 317 308 301 293 289 286 282 276 271 267 263 258 254 251 249 247 245 244 243 243 242 240 239 238 238 238 237 237 236 236 235 234 234 233 233 233 232 231 230 230 230 230 230 230 231 231 231 231 231 230 230 230 231 233 235 238 240
257 249 282 282 252 278 274 262 293 350 224 275 287 282 279 277 270 259 252 250 259 267 268 269 271 274 276 277 280 286 294 304 317 327 333 348 1 1 353 344 332 317 307 297 291 287 281 276 271 267 262 258 255 254 252 251 250 249 248 247 245 243 242 241 240 240 239 237 237 235 234 234 233 233 233 233 232 232 231 231 231 231 231 231 231 231 230 229 229 229 230 230 231 232 233 235 238
230 226 267 276 260 279 273 261 317 342 244 274 298 289 283 272 262 258 254 249 258 268 269 267 265 264 268 273 280 292 306 317 325 338 355 14 23 23 20 14 2 346 325 307 298 290 283 278 273 268 264 260 257 256 255 254 252 250 248 247 246 246 245 245 243 242 240 239 238 236 235 234 233 233 232 233 232 232 232 232 232 232 232 232 232 232 232 231 231 230 230 230 232 233 234 235 237
229 210 228 261 259 249 252 276 334 328 286 299 317 300 294 267 255 277 283 260 253 261 267 265 260 259 267 274 282 300 320 328 334 356 24 34 34 34 31 27 21 12 357 330 301 287 279 275 271 266 262 259 258 257 256 255 252 249 247 245 244 243 243 242 242 241 239 238 237 236 235 234 234 233 232 233 233 233 233 232 232 233 233 233 233 233 234 234 233 232 231 231 232 234 236 237 237
267 218 213 239 254 253 257 288 346 350 313 340 10 323 302 25 85 281 298 324 276 257 252 254 264 281 281 281 298 329 340 347 2 27 40 39 36 34 30 27 25 21 14 1 330 296 279 270 266 263 261 259 258 257 255 254 252 250 247 245 243 242 242 241 241 240 239 238 238 238 237 236 235 234 233 233 233 233 233 233 233 233 233 234 234 234 234 234 233 233 233 233 234 236 237 237 238
285 237 209 224 242 251 259 279 331 307 257 293 61 8 284 287 228 253 263 336 281 258 244 257 299 312 288 296 340 5 11 29 48 48 42 37 32 28 25 23 22 20 18 14 4 338 304 284 272 265 263 263 263 260 258 255 252 250 249 248 248 248 247 248 247 246 244 243 242 241 240 238 236 235 234 233 233 233 233 233 233 233 234 235 234 235 235 234 234 233 233 234 235 236 236 237 239
264 234 190 201 224 233 230 220 224 239 280 313 95 145 273 284 257 251 194 173 252 262 264 285 304 294 291 320 18 35 46 54 53 45 37 31 28 25 22 22 21 20 18 15 15 9 347 317 294 280 270 267 266 265 262 260 257 255 253 252 252 252 253 253 252 251 250 247 244 242 241 240 238 236 235 234 234 234 233 233 233 233 234 235 235 235 235 235 234 234 233 233 234 235 236 238 239
252 199 143 174 204 204 167 164 204 266 350 311 254 148 254 280 273 20 83 193 251 268 273 283 283 293 307 353 54 53 57 58 47 37 29 25 25 24 22 22 21 21 19 15 15 16 12 356 329 308 290 276 270 268 266 264 262 261 259 257 256 256 255 253 253 252 251 249 247 244 242 241 239 237 236 235 234 234 234 234 234 234 234 235 235 236 236 236 235 234 234 234 234 235 236 237 239
222 119 90 74 64 65 92 132 135 48 316 252 212 167 241 280 280 86 73 258 261 262 271 276 270 303 353 46 58 55 61 54 41 32 27 24 23 24 23 21 19 17 17 15 13 14 16 14 3 345 322 298 282 272 268 267 266 264 263 261 260 259 257 254 253 252 251 250 248 247 245 243 241 238 237 236 235 235 235 235 235 235 235 235 236 236 236 235 235 234 235 235 236 237 237 237 239
125 105 66 43 39 40 51 31 91 59 286 227 192 184 185 283 292 133 186 235 218 239 300 302 300 348 68 67 45 55 60 43 32 29 26 23 22 23 21 19 18 16 15 14 11 10 12 15 15 8 354 331 309 291 277 270 267 266 266 264 263 262 260 257 255 254 252 251 250 249 248 246 244 241 239 237 236 236 236 236 236 236 236 236 236 237 236 236 235 235 235 235 236 236 237 238 239
104 92 64 37 343 12 27 351 51 171 262 238 199 187 179 234 263 332 276 261 221 228 309 310 306 309 345 41 46 59 52 33 27 26 23 21 19 19 17 16 15 13 13 13 11 10 8 8 11 12 7 353 334 316 300 286 275 269 267 267 266 264 262 262 260 258 257 255 254 252 250 249 247 244 241 239 238 237 237 237 237 237 237 236 236 236 237 237 236 235 235 235 236 236 236 237 238
107 111 118 148 308 343 347 309 82 220 254 277 239 184 210 241 257 295 278 277 270 223 233 252 272 289 308 16 57 58 41 29 28 27 25 22 17 17 17 16 15 13 12 12 10 9 7 4 4 7 8 0 345 328 315 303 289 280 273 270 269 266 264 263 263 261 261 260 259 257 254 252 250 247 244 242 241 239 239 239 239 239 238 237 237 237 237 237 236 236 236 236 236 236 236 237 238
162 157 157 168 198 242 262 254 256 267 272 309 315 186 268 282 280 249 247 269 294 251 239 263 274 286 309 32 61 49 36 27 29 32 27 21 19 20 20 18 16 13 10 8 6 6 5 2 359 359 3 360 348 333 320 309 299 290 281 275 271 268 267 266 265 264 264 263 262 261 261 259 257 254 252 249 247 244 242 242 242 242 242 241 240 239 238 238 237 237 236 236 236 237 237 237 238
184 165 138 164 178 195 224 223 237 261 275 306 302 191 232 263 287 251 237 261 291 291 290 295 293 286 305 65 54 41 35 31 34 37 30 26 25 23 21 20 18 14 9 4 1 1 3 3 359 357 358 358 350 334 321 313 306 297 288 281 276 272 269 267 267 267 267 266 265 264 264 264 263 262 260 257 253 250 248 246 246 245 245 243 242 241 240 239 238 237 237 237 237 237 237 237 238
204 123 113 222 206 178 225 237 205 203 289 285 251 228 235 242 284 282 266 272 288 295 308 340 344 23 84 62 45 40 38 38 41 39 36 34 31 28 25 24 21 19 15 8 2 359 359 2 2 359 358 358 353 340 326 317 308 300 293 287 282 277 273 269 268 268 268 269 270 269 267 266 266 264 263 260 257 255 253 251 249 248 247 246 244 243 242 240 239 238 237 237 236 236 236 236 237
160 126 188 225 175 145 235 272 137 100 264 252 204 252 278 293 292 294 313 55 357 357 16 36 50 69 65 45 43 46 43 45 46 43 40 36 33 32 29 27 24 22 19 14 9 3 359 1 4 3 1 359 358 351 337 322 311 302 297 290 284 280 277 273 271 269 269 270 271 271 270 268 267 266 264 263 260 258 255 254 252 251 249 248 247 245 243 242 241 240 239 238 238 237 237 237 237
137 179 216 200 137 138 148 262 336 224 246 247 222 253 274 285 286 323 50 74 36 13 5 5 29 42 37 35 46 48 46 48 46 42 39 35 34 34 33 32 30 28 25 22 18 12 5 3 4 7 6 3 2 360 350 332 315 305 299 293 289 285 282 278 275 271 269 269 270 271 270 269 269 270 269 266 264 261 259 256 254 253 251 250 249 247 245 243 242 241 240 240 239 238 238 238 237
159 200 231 125 180 228 154 171 238 240 247 257 225 240 255 253 254 277 286 269 267 14 7 15 25 27 25 31 39 40 42 43 39 39 37 35 35 34 34 34 33 33 32 29 26 20 13 7 5 8 9 8 4 0 359 350 331 315 307 302 299 297 293 289 283 278 273 270 270 271 270 270 270 270 269 268 267 265 263 261 258 256 254 252 251 250 248 246 244 242 241 240 239 238 238 238 238
83 5 312 114 177 215 202 173 169 233 255 260 232 231 234 230 246 269 278 278 20 21 17 26 36 37 31 33 36 37 41 42 39 40 39 38 37 34 33 33 32 32 31 29 26 23 22 17 10 7 7 8 6 2 1 359 352 339 327 320 315 307 302 296 290 284 279 275 274 272 271 271 270 270 270 269 269 268 266 264 262 260 258 256 254 252 250 248 246 244 243 241 240 239 238 238 238
159 204 242 225 198 223 277 229 177 223 251 259 257 248 236 228 248 270 288 28 45 35 48 52 49 49 41 38 41 40 42 44 42 40 38 37 36 32 31 29 27 27 26 26 25 23 23 21 16 13 7 4 5 4 1 359 358 354 346 340 331 314 301 295 291 287 284 282 280 278 277 275 272 271 271 271 271 270 269 267 265 263 260 258 256 254 252 250 248 247 245 243 242 240 239 239 238
187 199 209 218 223 238 272 249 207 210 237 245 257 258 248 242 284 296 340 56 53 45 66 67 49 49 45 41 44 43 42 42 40 37 35 32 29 27 27 25 23 22 21 21 21 20 20 19 18 17 12 8 5 4 2 359 357 355 351 347 339 326 310 299 295 293 291 291 289 287 286 283 279 276 275 274 273 272 271 270 267 265 262 259 257 255 254 252 250 249 247 244 242 241 239 238 237